Weather in Luzhbelyak

Russia / Mari El Republic     57°00′47″N   48°13′48″E
temp.,
°C
wind,
m/s
gust,
m/s
humid.,
%
clouds,
%
prec.,
mm/h
press.,
hPa
HPBL,
m
9 december, thu
thu900:00−1s51294100 0.0 1023344
03:00−1s51296100 0.0 1023348
06:000s51098100 0.0 1022502
09:00−1s61197100 0.0 1022470
12:00−1s5997100 0.0 1021525
15:00−1s4897100 0.1 1021400
18:00−1ssw3698100 0.7 1022250
21:00−5n589599 1.9 1024248
10 december, fri
fri1000:00−11nnw499511 0.0 1026170
03:00−15n49945 0.0 1028156
06:00−17n39965 0.0 1031136
09:00−18n410955 0.0 1033166
12:00−15n49935 0.0 1034199
15:00−17n37945 0.0 1036126
18:00−17nne39955 0.0 1038133
21:00−18ne38945 0.0 1039117
11 december, sat
sat1100:00−18ne38955 0.0 1040112
03:00−18ne38955 0.0 1041111
06:00−18ene37955 0.0 104198
09:00−17ene36935 0.0 104296
12:00−13ene36885 0.0 1042141
15:00−16ne22935 0.0 104324
18:00−16ene35905 0.0 104463
21:00−16e34905 0.0 104447
12 december, sun
sun1200:00−15e34885 0.0 104440
03:00−16e228931 0.0 104524
06:00−17se229093 0.0 104514
09:00−16se229022 0.0 104513
12:00−10s258513 0.0 104486
15:00−13s229228 0.0 104412
18:00−14sse35935 0.0 104441
21:00−15s249021 0.0 104358
13 december, mon
mon1300:00−15s359246 0.0 104460
03:00−15s369463 0.0 104363
06:00−15s369623 0.0 104263
09:00−16ssw359754 0.0 104257
12:00−11ssw368759 0.0 104198
15:00−13s348929 0.0 104041
18:00−13s378856 0.0 104075
21:00−12ssw3886100 0.0 103988